Voltar ao catálogo

FENGYUN 1C DEB

AtivoPO
NORAD 31222·DEBRIS·🇨🇳 China

Lançado May 10, 1999 de Taiyuan Satellite Launch Center

Loading…

Próximas Passagens (próximas 24 horas)

TLE

AtualizadoSource: Space-Track

Época: Sep 11, 2026, 05:56 UTC

1 31222U 99025BLC 26254.24742940  .00006918  00000-0  40707-3 0  9991
2 31222  98.5924 358.0143 0150310 252.4168 106.0587 15.02947175 40700

Acompanhe FENGYUN 1C DEB em tempo real com AllMySat

Download on the App Store